Portada
METAR-TAF:

METAR-TAF

Aeroports :

Kélibia, Tunísia

latitud: 36-51N, longitud: 011-05E, altitud: 29 m

Observació

L'informe es va fer fa 52 minuts, a les 12:00 UTC
Vent 2 kt amb direcció variable
Temperatura 27°C
Humitat 79%
Pressió 1014 hPa
Visibilitat 10 km o més
Núvols disperses a una alçada de 2000 ft

METAR: DTTL 161200Z VRB02KT 9999 SCT020 27/23 Q1014

Hora: 13:52 (12:52 UTC)


TAF: manca

Observacions i pronòstics meteorològics de més de 4000 aeroports (METAR i TAF).

Les estacions disponibles són els punts grocs i vermells al mapa.

Posi el ratolí al punt desitjat per veure el nom de l'estació.

Feu clic per veure les observacions i els pronòstics meteorològics.

Per canviar el mapa: feu clic els botons verds amb una creu de color negre per apropar; al botó verd amb un guió per allunyar la imatge; o en les fletxes verdes per a mapes adjacents.


METAR-TAF: